Debrecen, Hungary

4:14 PM CEST on June 24, 2017 (GMT +0200)
Debrecen

Weather History for LHDC - November, 2013

Change the Weather History Date:

Sunday, November 3, 2013

  Actual Average Record
Temperature  
Mean Temperature 56 °F -  
Max Temperature 61 °F 46 °F - ()
Min Temperature 52 °F 33 °F - ()
Degree Days  
Heating Degree Days 8    
Growing Degree Days 6 (Base 50)    
Moisture  
Dew Point 54 °F    
Average Humidity 86    
Maximum Humidity 94    
Minimum Humidity 77    
Precipitation  
Precipitation 0.08 in 0.06 in - ()
Sea Level Pressure  
Sea Level Pressure 29.81 in    
Wind  
Wind Speed 11 mph ()    
Max Wind Speed 20 mph    
Max Gust Speed -    
Visibility 5.6 miles    
Events Rain    
T = Trace of Precipitation, MM = Missing Value Source: Averaged Metar Reports

Daily Weather History Graph

Daily Weather History Graph

Search for Another Location

Airport or City:

Trip Planner

Search our weather history database for the weather conditions in past years. The results will help you decide how hot, cold, wet, or windy it might be!

Date:

Astronomy

Nov. 03, 2013 Rise Set
Actual Time 6:20 AM CET 4:13 PM CET
Civil Twilight 5:47 AM CET 4:45 PM CET
Nautical Twilight 5:11 AM CET 5:22 PM CET
Astronomical Twilight 4:35 AM CET 5:57 PM CET
Moon 6:03 AM CET (11/3) 4:12 PM CET (11/3)
Length of Visible Light 10h 57m
Length of Day
9h 53m
Waning Crescent, 0% of the Moon is Illuminated
Nov 3
Waning Crescent
Nov 3
New
Nov 10
First Quarter
Nov 17
Full
Nov 25
Last Quarter

Hourly Weather History & Observations

Time (CET) Temp. Dew Point Humidity Pressure Visibility Wind Dir Wind Speed Gust Speed Precip Events Conditions
1:00 AM 54 °F 52 °F 90% 29.93 in - South 6.7 mph - -  
5:15 AM 53.6 °F 50.0 °F 88% 29.89 in - South 9.2 mph - N/A   Clear
5:45 AM 53.6 °F 51.8 °F 94% 29.89 in - South 9.2 mph - N/A   Clear
6:00 AM - - N/A% - 6.2 mi South 9.2 mph - N/A   Clear
6:15 AM 53.6 °F 51.8 °F 94% 29.89 in 4.3 mi South 10.4 mph - N/A   Scattered Clouds
6:45 AM 53.6 °F 51.8 °F 94% 29.89 in 4.3 mi South 10.4 mph - N/A   Mostly Cloudy
7:00 AM 54 °F 51 °F 87% 29.88 in 4 mi South 11.2 mph - -   Partly Cloudy
7:15 AM 55.4 °F 51.8 °F 88% 29.89 in 3.7 mi South 10.4 mph - N/A   Mostly Cloudy
7:45 AM 55.4 °F 51.8 °F 88% 29.89 in 3.7 mi South 11.5 mph - N/A   Mostly Cloudy
8:15 AM 57.2 °F 53.6 °F 88% 29.89 in 6.2 mi South 12.7 mph - N/A   Mostly Cloudy
8:45 AM 57.2 °F 53.6 °F 88% 29.89 in 6.2 mi South 13.8 mph - N/A   Overcast
9:00 AM - - N/A% - 6.2 mi South 15.0 mph - N/A   Mostly Cloudy
9:15 AM 57.2 °F 53.6 °F 88% 29.89 in 6.2 mi South 15.0 mph - N/A   Overcast
9:45 AM 59.0 °F 53.6 °F 82% 29.86 in - South 16.1 mph - N/A   Clear
10:03 AM 59.0 °F 53.6 °F 82% 29.86 in - South 13.8 mph - N/A   Unknown
10:10 AM 57.2 °F 53.6 °F 88% 29.86 in 2.5 mi South 16.1 mph - N/A Rain Light Rain
10:15 AM 57.2 °F 53.6 °F 88% 29.86 in 2.5 mi South 16.1 mph - N/A Rain Light Rain
10:45 AM 57.2 °F 53.6 °F 88% 29.86 in 6.2 mi South 13.8 mph - N/A   Overcast
11:15 AM 57.2 °F 55.4 °F 94% 29.83 in 5.0 mi South 13.8 mph - N/A Rain Light Rain
11:45 AM 59.0 °F 55.4 °F 88% 29.83 in 6.2 mi South 12.7 mph - N/A Rain Light Rain
12:00 PM - - N/A% - 6.2 mi South 15.0 mph - N/A   Mostly Cloudy
12:15 PM 60.8 °F 55.4 °F 82% 29.80 in 6.2 mi South 15.0 mph - N/A Rain Light Rain
12:45 PM 60.8 °F 55.4 °F 82% 29.80 in 6.2 mi South 11.5 mph - N/A Rain Light Rain
1:00 PM 60 °F 55 °F 80% 29.78 in 11 mi South 11.2 mph - - Rain Light Rain
1:15 PM 60.8 °F 55.4 °F 82% 29.77 in 6.2 mi South 11.5 mph - N/A Rain Light Rain
1:45 PM 60.8 °F 55.4 °F 82% 29.74 in 6.2 mi South 15.0 mph - N/A   Overcast
2:15 PM 62.6 °F 55.4 °F 77% 29.74 in 6.2 mi South 16.1 mph - N/A   Mostly Cloudy
2:45 PM 60.8 °F 53.6 °F 77% 29.71 in 6.2 mi South 15.0 mph - N/A   Mostly Cloudy
3:15 PM 60.8 °F 55.4 °F 82% 29.71 in 6.2 mi South 13.8 mph - N/A Rain Light Rain
3:45 PM 60.8 °F 55.4 °F 82% 29.71 in 5.0 mi SSW 15.0 mph - N/A Rain Light Rain
4:15 PM 59.0 °F 55.4 °F 88% 29.68 in 6.2 mi South 17.3 mph - N/A Rain Light Rain
4:45 PM 59.0 °F 55.4 °F 88% 29.68 in 6.2 mi South 16.1 mph - N/A Rain Light Rain
5:00 PM - - N/A% - - North - - N/A   Unknown
5:52 PM 60.8 °F 53.6 °F 77% 29.65 in - South 18.4 mph - N/A   Unknown
7:00 PM 58 °F 54 °F 81% 29.69 in - West 20.1 mph - -  
8:32 PM 53.6 °F 48.2 °F 82% 29.74 in - West 18.4 mph - N/A   Unknown